Flag for Namibia Weather past 2 weeks in Windhoek, Namibia

Now
45 °F

Sunny.


Feels Like: 40 °F
Forecast: 33 / 65 °F
Wind: 9 mph from East

Location: Windhoek

Current Time: Jul 26, 2014 at 10:14:28 AM

Latest Report: Jul 26, 2014 at 9:00 AM


Visibility: 10 mi

Pressure: 30.30 "Hg

Humidity: 53%

Dew point: 28 °F

Location of WindhoekLocation

Historic Weather in Windhoek — Graph

°F

Windhoek temperature yesterday

Maximum temperature yesterday: 68 °F (at 1:00 PM)
Minimum temperature yesterday: 39 °F (at 11:00 PM)
Average temperature yesterday: 53 °F

Past Weeks' High & Low Weather Summary

 TemperatureHumidityPressure
High84 °F (Jul 14, 1:00 PM)81% (Jul 26, 5:00 AM)30.45 "Hg (Jul 26, 5:00 AM)
Low32 °F (Jul 26, 2:00 AM)5% (Jul 25, 3:00 PM)30.15 "Hg (Jul 18, 2:00 PM)
Average61 °F28%30.31 "Hg
* Reported Jul 11 9:00 AM — Jul 26 9:00 AM, Windhoek, Weather by CustomWeather, © 2014

Note: Actual official high and low records may vary slightly from our data, if they occured in-between our weather recording intervals... More about our weather records

Advertising

Windhoek weather history for previous 24 hours

 ConditionsComfort  
Time TempWeatherWind HumidityBarometerVisibility
9:00 AM
Jul 26
45 °FSunny.9 mph53%30.30 "Hg10 mi
8:00 AM37 °FSunny.9 mph70%30.27 "Hg10 mi
7:00 AM34 °FSunny.9 mph81%30.27 "Hg10 mi
6:00 AM34 °FSunny.8 mph75%30.24 "Hg10 mi
5:00 AM34 °FChilly.8 mph81%30.21 "HgN/A
4:00 AM36 °FChilly.6 mph70%30.21 "HgN/A
3:00 AM37 °FChilly.6 mph65%30.21 "HgN/A
2:00 AM32 °FChilly.5 mph69%30.21 "HgN/A
1:00 AM37 °FChilly.5 mph65%30.24 "HgN/A
12:00 AM37 °FChilly.5 mph60%30.21 "HgN/A
11:00 PM
Jul 25
39 °FChilly.3 mph61%30.24 "HgN/A
10:00 PM43 °FQuite cool.2 mph53%30.24 "HgN/A
9:00 PM45 °FQuite cool.2 mph53%30.24 "HgN/A
8:00 PM48 °FCool.2 mph43%30.24 "HgN/A
7:00 PM50 °FClear.3 mph40%30.21 "Hg10 mi
6:00 PM55 °FClear.7 mph33%30.18 "Hg10 mi
5:00 PM61 °FClear.9 mph22%30.15 "Hg10 mi
4:00 PM64 °FSunny.12 mph18%30.15 "Hg10 mi
3:00 PM66 °FSunny.12 mph5%30.15 "Hg10 mi
2:00 PM68 °FSunny.9 mph13%30.15 "Hg10 mi
1:00 PM68 °FSunny.13 mph11%30.18 "Hg10 mi
12:00 PM66 °FSunny.9 mph14%30.21 "Hg10 mi
11:00 AM63 °FSunny.5 mph19%30.21 "Hg10 mi
10:00 AM59 °FSunny.3 mph31%30.24 "Hg10 mi
Weather by CustomWeather, © 2014

See weather overviewHow to use our weather pages